This demonstration page uses our WeatherBlox Daily Observations layout. Learn more.

Left ArrowRight Arrow

Hourly Observations for June 12, 2022

Temp ( °F °C ) Dew Point ( °F °C ) Humidity (%) Winds ( mph kmh ) Pressure ( in mb ) Visibility ( mi km ) Precip ( " mm )
12:51 am 00:51 Clear 64 17.8 53 11.7 68 68 SSW 5 7 29.94 1014 10 16 0.00 0.00
1:51 am 01:51 Clear 63 17.2 54 12.2 73 73 SSW 3 6 29.95 1014 10 16 0.00 0.00
2:51 am 02:51 Clear 63 17.2 54 12.2 73 73 Calm 29.96 1015 10 16 0.00 0.00
3:51 am 03:51 Clear 63 17.2 55 12.8 76 76 Calm 29.96 1014 10 16 0.00 0.00
4:51 am 04:51 Mostly Cloudy 63 17.2 56 13.3 78 78 SE 3 6 29.96 1015 10 16 0.00 0.00
5:51 am 05:51 Mostly Cloudy 64 17.8 57 13.9 78 78 Calm 29.97 1015 10 16 0.00 0.00
6:51 am 06:51 Cloudy 64 17.8 58 14.4 81 81 Calm 29.97 1015 10 16 0.00 0.00
7:51 am 07:51 Cloudy with Light Rain 66 18.9 58 14.4 75 75 Calm 29.98 1015 9 14 0.00 0.00
8:22 am 08:22 Cloudy with Light Rain 66 18.9 59 15 78 78 S 12 19 29.99 1016 6 10 0.01 0.25
8:51 am 08:51 Cloudy with Light Rain 64 17.8 59 15 84 84 SSE 7 11 29.98 1015 10 16 0.01 0.25
9:51 am 09:51 Cloudy with Light Rain 65 18.3 59 15 81 81 S 8 13 29.97 1015 10 16 0.01 0.25
10:51 am 10:51 Cloudy with Light Rain 65 18.3 61 16.1 87 87 S 8 13 29.98 1015 10 16 0.00 0.00
11:51 am 11:51 Cloudy with Light Rain 66 18.9 62 16.7 87 87 S 8 13 29.98 1015 8 13 0.01 0.25
11:58 am 11:58 Cloudy with Light Rain 70 21 64 18 83 83 S 12 19 29.98 1015 10 16 0.00 0.00
12:05 pm 12:05 Cloudy with Light Rain 67 19.4 63 17.2 87 87 S 7 11 29.98 1015 10 16 0.00 0.00
12:51 pm 12:51 Cloudy 68 20 63 17.2 84 84 S 12 19 29.98 1015 10 16 0.00 0.00
1:00 pm 13:00 Cloudy 68 20 63 17.2 84 84 S 8 13 29.98 1015 10 16 0.00 0.00
1:51 pm 13:51 Cloudy 70 21.1 63 17.2 79 79 S 10 17 29.95 1014 10 16 0.00 0.00
2:41 pm 14:41 Mostly Cloudy 74 23.3 63 17.2 69 69 S 14 22 29.94 1014 10 16 0.00 0.00
2:51 pm 14:51 Cloudy 73 22.8 63 17.2 71 71 S 12 19 29.93 1014 10 16 0.00 0.00
3:07 pm 15:07 Cloudy 75 23.9 61 16.1 62 62 S 10 17 29.94 1014 10 16 0.00 0.00
3:51 pm 15:51 Cloudy 74 23.3 63 17.2 69 69 S 12 19 29.92 1013 10 16 0.00 0.00
4:51 pm 16:51 Cloudy 72 22.2 64 17.8 76 76 S 10 17 29.92 1013 10 16 0.00 0.00
5:33 pm 17:33 Cloudy 72 22.2 64 17.8 76 76 SSE 10 17 29.92 1013 10 16 0.00 0.00
5:51 pm 17:51 Partly Cloudy 72 22.2 64 17.8 76 76 S 8 13 29.91 1013 10 16 0.00 0.00
6:51 pm 18:51 Mostly Sunny 71 21.7 64 17.8 79 79 S 9 15 29.91 1013 10 16 0.00 0.00
7:51 pm 19:51 Mostly Cloudy 71 21.7 64 17.8 79 79 SSE 7 11 29.90 1012 10 16 0.00 0.00
8:51 pm 20:51 Mostly Cloudy 70 21.1 64 17.8 82 82 S 8 13 29.90 1013 10 16 0.00 0.00
9:51 pm 21:51 Cloudy 70 21.1 64 17.8 82 82 S 5 7 29.91 1013 10 16 0.00 0.00
10:51 pm 22:51 Cloudy 69 20.6 64 17.8 84 84 S 3 6 29.91 1013 10 16 0.00 0.00
11:51 pm 23:51 Cloudy 69 20.6 65 18.3 87 87 S 6 9 29.89 1012 10 16 0.00 0.00

Powered by AerisWeather